Probability
0 0 0 0 0 0 0 0 0 0 0 0 0 0 0 0 0 0 0 0 0 0 0 0 0 0 0 0 0 0 0 0 0 0 0 0 0 0
0 0 0 0 0 0 0 0 0 0 0 0 0 0 0 0 0 0 0 0 0 0 0 0 0 0 0 0 0 0 0 0 0 0 0 0 0 0
0 0 0 0 0 0 0 0 0 0 0 0 0 0 0 0 0 0 0 0 0 0 0 0 0 0 0 0 0 0 0 0 0 0 0 0 0 0
0 0 0 0 0 0 0 0 0 0 0 0 0 0 0 0 0 0 0 0 0 0 0 0 0 0 0 0 0 0 0 0 0 0 0 0 0 0
0 0 0 0 0 0 0 0 0 0 0 0 0 0 0 0 0 0 0 0 0 0 0 0 0 0 0 0 0 0 0 0 0 0 0 0 0 0
0 0 0 0 0 0 0 0 0 0 0 0 0 0 0 0 0 0 0 0 0 0 0 0 0 0 0 0 0 0 0 0 0 0 0 0 0 0
0 0 0 0 0 0 0 0 0 0 0 0 0 0 0 0 0 0 0 0 0 0 0 0 0 0 0 0 0 0 0 0 0 0 0 0 0 0
1 0 0 0 0 0 0 0 0 0 0 0 0 0 0 0 0 0 0 0 0 0 0 0 0 0 0 0 0 0 0 0 0 0 0 0 0 0
1 1 0 0 0 0 0 0 0 0 0 0 0 0 0 0 0 0 0 0 0 0 0 0 0 0 0 0 0 0 0 0 0 0 0 0 0 0
1 1 0 0 0 0 0 0 0 0 0 0 0 0 0 0 0 0 0 0 0 0 0 0 0 0 0 0 0 0 0 0 0 0 0 0 0 0
0 0 0 0 0 0 0 0 0 0 0 0 0 0 0 0 0 0 0 0 0 0 0 0 0 0 0 0 0 0 0 0 0 0 0 0 0 0
0 0 0 0 0 0 0 0 0 0 0 0 0 0 0 0 0 0 0 0 0 0 0 0 0 0 0 0 0 0 0 0 0 0 0 0 0 0
0 0 0 0 0 0 0 0 0 0 0 0 0 0 0 0 0 0 0 0 0 0 0 0 0 0 0 0 0 0 0 0 0 0 0 0 0 0
0 0 0 0 0 0 0 0 0 0 0 0 0 0 0 0 0 0 0 0 0 0 0 0 0 0 0 0 0 0 0 0 0 0 0 0 0 0
0 0 0 0 0 0 0 0 0 0 0 0 0 0 0 0 0 0 0 0 0 0 0 0 0 0 0 0 0 0 0 0 0 0 0 0 0 0
0 0 0 0 0 0 0 0 0 0 0 0 0 0 0 0 0 0 0 0 0 0 0 0 0 0 0 0 0 0 0 0 0 0 0 0 0 0
0 0 0 0 0 0 0 0 0 0 0 0 0 0 0 0 0 0 0 0 0 0 0 0 0 0 0 0 0 0 0 0 0 0 0 0 0 0
0 0 0 0 0 0 0 0 0 0 0 0 0 0 0 0 0 0 0 0 0 0 0 0 0 0 0 0 0 0 0 0 0 0 0 0 0 0
0 0 0 0 0 0 0 0 0 0 0 0 0 0 0 0 0 0 0 0 0 0 0 0 0 0 0 0 0 0 0 0 0 0 0 0 0 0
0 0 0 0 0 0 0 0 0 0 0 0 0 0 0 0 0 0 0 0 0 0 0 0 0 0 0 0 0 0 0 0 0 0 0 0 0 0
0 0 0 0 0 0 0 0 0 0 0 0 0 0 0 0 0 0 0 0 0 0 0 0 0 0 0 0 0 0 0 0 0 0 0 0 0 0
0 0 0 0 0 0 0 0 0 0 0 0 0 0 0 0 0 0 0 0 0 0 0 0 0 0 0 0 0 0 0 0 0 0 0 0 0 0
0 0 0 0 0 0 0 0 0 0 0 0 0 0 0 0 0 0 0 0 0 0 0 0 0 0 0 0 0 0 0 0 0 0 0 0 0 0
Wind_Speed
3 3 2 2 2 2 2 3 4 2 1 1 1 1 1 3 4 4 4 6 7 6 6 6 6 6 6 6 6 6 6 6 6 5 5 5 5 5
3 3 2 1 1 1 2 2 3 4 2 1 1 1 3 5 6 5 6 9 9 8 8 8 8 8 8 8 7 7 7 7 7 7 7 6 6 6
2 3 2 2 2 1 2 2 2 3 4 1 3 3 5 5 4 4 5 4 5 9 9 9 8 8 8 8 8 8 7 7 7 7 7 7 7 7
2 3 2 2 3 2 2 3 3 3 5 4 3 3 5 4 4 5 4 4 4 7 8 9 8 8 7 7 7 7 6 6 6 6 6 6 7 7
3 4 3 4 4 3 4 4 3 4 4 6 4 3 3 3 4 5 6 4 5 6 7 8 8 7 7 6 6 5 5 4 4 4 4 5 6 7
5 5 4 5 5 5 5 4 5 6 6 6 5 4 3 3 4 4 4 4 4 5 6 7 7 8 7 6 5 4 3 2 2 3 4 5 5 6
7 6 7 10 10 7 6 5 6 6 6 6 5 4 4 3 3 2 3 3 4 4 3 4 4 4 4 4 4 3 2 2 3 4 5 5 6 6
8 7 8 10 14 15 15 13 10 8 7 6 4 5 3 2 2 3 3 3 3 3 3 3 3 3 2 2 5 5 5 5 6 6 7 7 7 8
7 7 7 8 9 9 15 17 16 15 11 7 7 5 3 2 3 4 4 4 2 2 2 2 3 2 2 4 7 7 7 7 8 8 8 8 8 9
7 7 8 7 8 10 11 11 10 9 9 8 7 5 4 3 3 3 3 4 3 3 3 2 3 2 3 3 6 8 8 8 9 9 9 8 9 9
7 7 8 8 12 14 12 11 10 8 11 13 11 10 10 9 6 4 4 4 3 3 3 2 2 2 2 3 5 9 9 9 9 9 9 9 9 8
7 8 10 10 10 11 9 9 10 6 6 7 8 8 7 8 9 5 3 3 2 1 2 2 1 2 3 3 3 4 5 7 9 9 9 10 10 5
7 6 6 11 11 10 8 7 8 7 6 6 6 5 5 5 5 4 3 3 3 0 1 1 1 1 1 3 4 4 3 3 4 5 7 9 10 6
7 5 7 12 12 11 8 9 11 9 6 6 5 4 4 4 3 4 4 4 2 1 1 1 1 0 0 2 3 4 4 4 3 3 4 7 8 9
7 10 11 13 11 9 11 11 8 6 5 5 4 3 2 2 3 4 5 5 5 4 3 2 1 0 1 1 2 3 3 4 3 3 4 4 4 4
8 10 12 12 9 8 8 6 4 4 5 4 3 2 2 3 3 3 3 3 4 4 5 4 2 1 1 2 1 3 3 4 4 5 4 4 4 4
7 5 5 4 5 5 4 4 4 4 4 3 3 3 3 3 3 2 2 3 3 2 4 4 4 2 1 2 2 3 3 4 4 4 3 4 5 5
8 6 5 4 5 4 4 3 3 3 3 3 3 3 2 2 2 2 2 2 2 2 2 3 3 4 5 4 3 3 3 4 4 5 3 3 5 6
6 5 4 4 4 3 3 3 2 2 2 3 3 2 2 2 2 2 2 2 2 2 2 2 2 2 3 5 7 4 3 4 4 4 4 3 4 7
4 4 4 4 4 4 3 3 2 2 2 2 2 2 2 2 1 1 1 1 1 2 3 3 2 1 1 3 4 6 7 4 3 4 4 4 5 8
3 3 4 4 4 3 3 3 3 3 2 2 2 1 1 1 1 1 1 2 1 1 2 4 5 6 2 1 3 5 6 8 7 4 4 4 5 5
3 4 3 4 4 3 3 3 3 3 2 2 1 1 1 1 0 1 1 1 2 2 3 4 5 3 2 2 4 5 6 7 9 12 9 6 3 4
4 4 4 4 4 3 3 4 4 3 2 2 1 1 0 0 1 1 1 1 2 3 3 3 3 3 2 2 3 4 7 7 5 5 7 12 13 12
Wind_Direction
187 183 180 198 177 171 161 155 151 161 226 271 38 29 76 81 79 82 78 90 96 101 100 93 86 83 83 81 80 75 70 64 59 53 46 39 28 13
183 168 180 189 163 153 155 155 156 155 167 207 72 60 75 85 81 78 77 85 83 88 88 90 89 87 85 84 81 78 75 70 63 57 50 41 32 24
180 160 169 144 123 107 107 112 120 128 133 92 50 49 59 74 70 73 75 72 78 83 86 87 87 86 84 83 81 76 71 66 62 56 48 39 30 20
160 136 134 123 105 102 99 94 103 115 127 122 78 51 59 76 79 76 72 79 82 81 85 83 81 81 81 79 76 74 69 62 55 47 39 29 19 8
131 121 114 110 97 90 91 90 91 94 100 114 100 60 56 57 66 68 61 47 70 69 75 76 73 74 75 75 71 67 62 54 43 33 25 14 6 1
97 101 101 104 107 101 91 93 99 96 94 100 95 71 55 36 56 61 52 37 46 47 52 62 60 60 59 64 64 67 62 35 8 355 350 348 345 342
86 83 86 90 91 93 97 98 102 100 97 97 93 80 62 56 56 49 63 53 44 34 43 43 39 31 32 39 40 36 10 336 331 330 328 326 326 325
99 87 81 80 84 83 85 86 94 107 112 106 97 95 81 62 56 70 73 61 39 1 44 35 34 22 1 12 7 7 352 339 331 327 326 324 320 317
107 102 94 88 86 89 81 76 73 79 94 110 105 99 94 79 85 74 67 72 65 334 48 32 7 5 351 18 15 7 354 344 338 332 325 322 323 321
96 102 105 99 97 100 94 83 74 69 79 85 98 96 94 93 99 115 111 92 56 13 43 51 352 348 349 352 358 2 352 342 336 333 329 326 324 320
86 88 98 99 102 103 101 97 89 77 77 84 85 83 79 74 79 78 68 77 53 359 7 61 348 339 336 331 338 347 341 336 335 333 332 331 328 325
89 83 85 94 100 102 106 109 104 96 89 77 67 59 57 55 57 74 102 99 87 16 334 42 352 6 343 312 309 322 329 325 331 333 332 329 329 330
103 92 86 91 91 93 99 105 113 112 99 91 80 63 50 43 36 41 69 105 105 95 289 76 20 2 336 306 313 313 324 320 325 324 325 324 324 323
108 103 98 93 88 88 89 92 95 94 88 83 76 62 51 39 27 30 44 60 88 141 289 88 100 249 348 324 308 313 322 322 324 320 318 320 318 317
104 108 101 93 87 82 82 86 87 88 90 88 83 70 56 47 40 34 24 32 33 26 30 51 87 89 144 231 283 299 312 310 314 317 313 313 307 312
101 97 91 87 85 86 80 74 73 90 103 102 96 70 50 47 43 42 39 23 30 359 350 2 21 56 6 290 274 296 297 296 303 310 310 307 305 303
114 97 89 87 82 77 71 68 70 76 80 79 79 69 57 52 34 29 47 43 42 3 340 335 337 337 262 240 297 297 297 298 295 306 318 314 300 298
111 111 110 106 106 106 100 87 76 81 85 87 81 79 76 67 42 27 41 49 34 347 325 317 339 354 354 323 252 268 294 288 296 305 301 301 296 296
106 116 122 124 122 121 118 112 103 98 97 94 93 88 82 68 57 37 27 25 2 333 314 315 348 25 4 329 306 287 269 292 302 304 295 282 276 287
113 127 132 134 133 131 131 125 116 103 93 94 92 87 83 78 61 32 13 0 332 326 325 322 321 309 254 260 275 294 296 281 287 292 290 293 282 286
134 138 142 142 140 139 139 134 129 127 123 112 101 95 90 84 58 353 331 339 349 328 317 300 283 299 278 327 319 305 297 300 294 282 280 296 304 306
150 150 153 150 148 148 144 136 128 129 129 123 128 125 113 111 138 294 307 315 304 292 288 289 307 330 351 329 303 297 298 306 314 316 303 279 264 273
160 158 157 156 155 153 148 145 142 149 155 155 155 161 148 151 272 272 288 294 299 306 306 308 318 325 307 288 289 293 300 305 307 317 310 305 304 294